| time (UTC) | temp C | wind direction | speed KPH | gust KPH | rain 1hr cm | rain 24hr cm | rain mn cm | humidity % | barometer mb |
| 20260505124554 | 5 | 288 | 4.8 | 11.3 | 0.00 | 0.00 | 0.00 | 60 | 1011.7 |
| 20260505123054 | 4 | 297 | 4.8 | 8.0 | 0.00 | 0.00 | 0.00 | 64 | 1011.4 |
| 20260505121544 | 3 | 307 | 3.2 | 6.4 | 0.00 | 0.00 | 0.00 | 67 | 1011.2 |
| 20260505114535 | 1 | 307 | 0.0 | 0.0 | 0.00 | 0.00 | 0.00 | 72 | 1010.9 |
| 20260505113032 | 0 | 307 | 0.0 | 3.2 | 0.00 | 0.00 | 0.00 | 73 | 1010.7 |
| 20260505111534 | 0 | 307 | 0.0 | 0.0 | 0.00 | 0.00 | 0.00 | 74 | 1010.4 |
| 20260505101512 | 2 | 307 | 0.0 | 4.8 | 0.00 | 0.00 | 0.00 | 61 | 1009.5 |
| 20260505100011 | 3 | 307 | 3.2 | 4.8 | 0.00 | 0.00 | 0.00 | 62 | 1009.3 |
| 20260505094505 | 3 | 307 | 1.6 | 6.4 | 0.00 | 0.00 | 0.00 | 59 | 1009.2 |
| 20260505093002 | 4 | 308 | 3.2 | 9.7 | 0.00 | 0.00 | 0.00 | 58 | 1009.1 |
| 20260505091600 | 4 | 315 | 4.8 | 12.9 | 0.00 | 0.00 | 0.00 | 57 | 1008.9 |
| 20260505090058 | 5 | 317 | 4.8 | 9.7 | 0.00 | 0.00 | 0.00 | 57 | 1008.8 |
| 20260505084601 | 5 | 306 | 4.8 | 12.9 | 0.00 | 0.00 | 0.00 | 55 | 1008.7 |
| 20260505083104 | 5 | 320 | 3.2 | 12.9 | 0.00 | 0.00 | 0.00 | 56 | 1008.6 |
| 20260505081547 | 5 | 300 | 4.8 | 12.9 | 0.00 | 0.00 | 0.00 | 54 | 1008.5 |
| 20260505080044 | 6 | 300 | 6.4 | 9.7 | 0.00 | 0.00 | 0.00 | 53 | 1008.6 |
| 20260505074541 | 6 | 302 | 4.8 | 12.9 | 0.00 | 0.00 | 0.00 | 51 | 1008.3 |
| 20260505073037 | 6 | 304 | 6.4 | 16.1 | 0.00 | 0.00 | 0.00 | 50 | 1008.1 |
| 20260505071534 | 6 | 306 | 8.0 | 14.5 | 0.00 | 0.00 | 0.00 | 50 | 1008.1 |
| 20260505070033 | 6 | 300 | 6.4 | 17.7 | 0.00 | 0.00 | 0.00 | 51 | 1008.0 |
| 20260505064534 | 7 | 315 | 4.8 | 14.5 | 0.00 | 0.00 | 0.00 | 50 | 1008.1 |
| 20260505063029 | 7 | 312 | 6.4 | 12.9 | 0.00 | 0.00 | 0.00 | 50 | 1008.0 |
| 20260505061528 | 7 | 332 | 4.8 | 9.7 | 0.00 | 0.00 | 0.00 | 50 | 1007.9 |
| 20260505060026 | 7 | 313 | 8.0 | 14.5 | 0.00 | 0.00 | 0.00 | 49 | 1008.0 |
| 20260505054542 | 7 | 324 | 6.4 | 16.1 | 0.00 | 0.00 | 0.00 | 49 | 1008.0 |
| 20260505053024 | 7 | 316 | 6.4 | 16.1 | 0.00 | 0.00 | 0.00 | 48 | 1008.1 |
| 20260505051520 | 7 | 314 | 8.0 | 20.9 | 0.00 | 0.00 | 0.00 | 47 | 1008.0 |
| 20260505041512 | 8 | 297 | 12.9 | 27.4 | 0.00 | 0.00 | 0.00 | 47 | 1007.8 |
| 20260505040013 | 8 | 306 | 14.5 | 33.8 | 0.00 | 0.00 | 0.00 | 47 | 1007.7 |
| 20260505034512 | 9 | 321 | 14.5 | 29.0 | 0.00 | 0.00 | 0.00 | 46 | 1007.7 |
| 20260505033010 | 9 | 310 | 16.1 | 35.4 | 0.00 | 0.00 | 0.00 | 45 | 1007.5 |
| 20260505031506 | 10 | 323 | 16.1 | 29.0 | 0.00 | 0.00 | 0.00 | 45 | 1007.3 |
| 20260505030015 | 10 | 335 | 17.7 | 30.6 | 0.00 | 0.00 | 0.00 | 45 | 1007.1 |
| 20260505024502 | 10 | 316 | 12.9 | 24.1 | 0.00 | 0.00 | 0.00 | 46 | 1006.8 |
| 20260505023100 | 10 | 309 | 12.9 | 25.7 | 0.00 | 0.00 | 0.00 | 45 | 1006.5 |
| 20260505021558 | 10 | 333 | 16.1 | 35.4 | 0.00 | 0.00 | 0.00 | 45 | 1006.3 |
| 20260505020107 | 11 | 303 | 17.7 | 33.8 | 0.00 | 0.00 | 0.00 | 44 | 1005.8 |
| 20260505014555 | 11 | 324 | 20.9 | 37.0 | 0.00 | 0.00 | 0.00 | 44 | 1005.5 |
| 20260505013053 | 11 | 346 | 22.5 | 35.4 | 0.00 | 0.00 | 0.00 | 43 | 1005.2 |
| 20260505011556 | 12 | 316 | 20.9 | 43.5 | 0.00 | 0.00 | 0.00 | 42 | 1004.7 |
| 20260505010107 | 13 | 294 | 17.7 | 30.6 | 0.00 | 0.00 | 0.00 | 42 | 1004.4 |
| 20260505004603 | 13 | 346 | 16.1 | 33.8 | 0.00 | 0.00 | 0.00 | 40 | 1003.9 |
| 20260505003053 | 13 | 319 | 22.5 | 40.2 | 0.00 | 0.00 | 0.00 | 38 | 1003.6 |
| 20260505001550 | 13 | 309 | 20.9 | 37.0 | 0.00 | 0.00 | 0.00 | 38 | 1003.6 |
| 20260505000100 | 14 | 296 | 22.5 | 38.6 | 0.00 | 0.00 | 0.00 | 37 | 1003.3 |
| 20260504234549 | 15 | 311 | 20.9 | 40.2 | 0.00 | 0.00 | 0.00 | 36 | 1003.4 |
| 20260504233008 | 15 | 301 | 27.4 | 51.5 | 0.00 | 0.00 | 0.00 | 32 | 1003.5 |
| 20260504231504 | 15 | 300 | 25.7 | 48.3 | 0.00 | 0.00 | 0.00 | 34 | 1003.5 |
| 20260504230004 | 16 | 302 | 32.2 | 41.8 | 0.00 | 0.00 | 0.00 | 34 | 1003.2 |
| 20260504224503 | 16 | 301 | 20.9 | 40.2 | 0.00 | 0.00 | 0.00 | 35 | 1003.0 |
| 20260504223002 | 16 | 324 | 16.1 | 35.4 | 0.00 | 0.00 | 0.00 | 33 | 1002.8 |
| 20260504221501 | 16 | 281 | 27.4 | 46.7 | 0.00 | 0.00 | 0.00 | 33 | 1002.4 |
| 20260504220101 | 17 | 310 | 32.2 | 45.1 | 0.00 | 0.00 | 0.00 | 31 | 1002.3 |
| 20260504214604 | 17 | 339 | 22.5 | 37.0 | 0.00 | 0.00 | 0.00 | 34 | 1002.1 |
| 20260504213102 | 17 | 294 | 20.9 | 41.8 | 0.00 | 0.00 | 0.00 | 33 | 1001.9 |
| 20260504211558 | 17 | 295 | 32.2 | 48.3 | 0.00 | 0.00 | 0.00 | 33 | 1001.9 |
| 20260504210059 | 17 | 298 | 25.7 | 40.2 | 0.00 | 0.00 | 0.00 | 36 | 1001.8 |
| 20260504204558 | 18 | 355 | 24.1 | 40.2 | 0.00 | 0.00 | 0.00 | 34 | 1001.7 |
| 20260504203056 | 18 | 321 | 19.3 | 41.8 | 0.00 | 0.00 | 0.00 | 34 | 1001.7 |
| 20260504201555 | 18 | 329 | 20.9 | 48.3 | 0.00 | 0.00 | 0.00 | 31 | 1001.7 |
| 20260504200055 | 18 | 326 | 24.1 | 38.6 | 0.00 | 0.00 | 0.00 | 34 | 1001.3 |
| 20260504194602 | 18 | 5 | 20.9 | 40.2 | 0.00 | 0.00 | 0.00 | 34 | 1001.2 |
| 20260504193053 | 18 | 288 | 22.5 | 37.0 | 0.00 | 0.00 | 0.00 | 36 | 1001.2 |
| 20260504191610 | 19 | 319 | 25.7 | 43.5 | 0.00 | 0.00 | 0.00 | 37 | 1000.8 |
| 20260504190050 | 20 | 310 | 24.1 | 38.6 | 0.00 | 0.00 | 0.00 | 33 | 1000.7 |
| 20260504184556 | 20 | 340 | 19.3 | 38.6 | 0.00 | 0.00 | 0.00 | 34 | 1000.3 |
| 20260504183049 | 20 | 279 | 25.7 | 38.6 | 0.00 | 0.00 | 0.00 | 35 | 1000.2 |
| 20260504181648 | 20 | 298 | 20.9 | 37.0 | 0.00 | 0.00 | 0.00 | 33 | 1000.2 |
| 20260504180045 | 20 | 305 | 17.7 | 40.2 | 0.00 | 0.00 | 0.00 | 38 | 1000.0 |
| 20260504174545 | 20 | 309 | 17.7 | 35.4 | 0.00 | 0.00 | 0.00 | 42 | 999.8 |
| 20260504173044 | 21 | 294 | 27.4 | 37.0 | 0.00 | 0.00 | 0.00 | 42 | 1000.0 |
| 20260504171544 | 20 | 285 | 24.1 | 37.0 | 0.00 | 0.00 | 0.00 | 46 | 999.9 |